Location: Saint Louis
(38.6272°N, 90.1978°W)
Time: 17:14:44
(UTC-05:00)

ISS - Pass Details

Date: 09 August 2013
Orbit: 402 x 403 km, 51.6° (Epoch: 27 June)

Event Time Altitude Azimuth Distance (km) Brightness Sun altitude
Rises 20:36:29 0° 270° (W) 2,332 1.8 -7.0°
Reaches altitude 10° 20:39:02 10° 290° (WNW) 1,467 1.2 -7.4°
Maximum altitude 20:41:23 18° 336° (NNW) 1,073 -0.4 -7.8°
Drops below altitude 10° 20:43:44 10° 22° (NNE) 1,462 -0.4 -8.2°
Enters shadow 20:49:05 -8° 52° (NE) 3,391 1.1 -9.2°
